Nicolás Posco fue el más veloz en la segunda tanda de entrenamientos de la Clase 2 del Turismo Nacional, que se llevó a cabo en San Luis. El piloto de Moreno, que viene de ganar en Concordia, logró un registro de 1:40.129 con el Ford Fiesta Kinetic que alista el Ale Bucci Racing y mejoró el tiempo que había marcado Julián Lepphaille en el ensayo inicial, de cara a la clasificación.

En el trazado puntano, el segundo puesto lo ocupó su compañero de equipo, Gabriel Scordia, a 56 centésimas; mientras que Gastón Grasso culminó en la tercera colocación, a 57 centésimas de la punta.

Por su parte, los diez primeros lugares los completaron Gerónimo Núñez, Lepphaille, Damián Markel, Agustín Herrera, Ever Franetovich, Joel Borgobello y Matías Signorelli.

    2do. Entrenamiento TN Clase 2 – San Luis    

Pos. Piloto Marca Vtas. Tiempo Dif.
1 1 Nicolas POSCO FIESTA KINETIC 7 1:40.129
2 21 Gabriel SCORDIA FIESTA KINETIC 8 1:40.691 0.562
3 5 Gaston GRASSO VW TREND 10 1:40.706 0.577
4 120 Geronimo NUÑEZ NISSAN MARCH 9 1:40.726 0.597
5 3 Julian LEPPHAILLE TOYOTA ETIOS 8 1:40.869 0.740
6 150 Damián MARKEL TOYOTA ETIOS 10 1:41.010 0.881
7 69 Agustin HERRERA RENAULT CLIO 8 1:41.039 0.910
8 31 Facundo LEANEZ TOYOTA ETIOS 10 1:41.063 0.934
9 14 Ever FRANETOVICH FIAT PALIO 7 1:41.067 0.938
10 13 Joel BORGOBELLO VW TREND 12 1:41.110 0.981
11 114 Matias SIGNORELLI NISSAN MARCH 12 1:41.118 0.989
12 25 Sebastian PEREZ CHEVROLET ONIX 7 1:41.184 1.055
13 43 Walter LOPEZ NISSAN MARCH 9 1:41.273 1.144
14 39 Alejandro VALDERREY FIAT PALIO 5 1:41.307 1.178
15 73 Lucas BAGNERA TOYOTA ETIOS 12 1:41.373 1.244
16 18 Marcos FERNANDEZ NISSAN MARCH 9 1:41.405 1.276
17 28 Agustin LOPEZ DONZELLI RENAULT CLIO 10 1:41.426 1.297
18 11 Gaston IANSA FIESTA KINETIC 7 1:41.453 1.324
19 32 Sergio FERNANDEZ NISSAN MARCH 13 1:41.460 1.331
20 26 Damian KIRSTEIN PEUGEOT 208 9 1:41.460 1.331
21 36 Alejo BORGIANI VW TREND 8 1:41.556 1.427
22 111 Joel GASSMANN FIESTA KINETIC 11 1:41.877 1.748
23 49 Juan Carlos POLINI RENAULT CLIO 15 1:42.178 2.049
24 6 Miguel CIAURRO VW TREND 10 1:42.284 2.155
25 24 Juan I. CANELA TOYOTA ETIOS 11 1:42.328 2.199
26 35 Diego LEANEZ TOYOTA ETIOS 14 1:42.342 2.213
27 48 Horacio COSTA TOYOTA ETIOS 12 1:42.479 2.350
28 141 Juan Pablo ROTONDO FIESTA KINETIC 10 1:42.545 2.416
29 117 Stefano DI PALMA CHEVROLET ONIX 9 1:42.577 2.448
30 65 Fernando GOMEZ FREDES PEUGEOT 208 11 1:42.874 2.745
31 54 Facundo ROTONDO FIESTA KINETIC 11 1:43.056 2.927
32 78 Alejandro WEIMANN TOYOTA ETIOS 9 1:43.261 3.132
33 159 Agustín BONOMO DS3 10 1:44.045 3.916
34 63 Renzo TESTA FIAT PALIO

S.B